Location: Winthrop
(48.4780°N, 120.1850°W)
Time: 17:09:38
(UTC-07:00)

Explorer 7 - Pass Details

Date: 03 February 2023
Orbit: 478 x 657 km, 50.3° (Epoch: 30 March)

Event Time Altitude Azimuth Distance (km) Brightness Sun altitude
Rises 16:14:29 0° 287° (WNW) 2,822 11.1 6.2°
Reaches altitude 10° 16:16:43 10° 286° (WNW) 1,949 10.3 5.9°
Maximum altitude 16:21:12 79° 200° (SSW) 641 7.4 5.2°
Drops below altitude 10° 16:25:55 10° 115° (ESE) 2,039 9.4 4.6°
Sets 16:28:17 0° 114° (ESE) 2,964 10.2 4.2°
